• Join FlightAware (Why Join?)
  • Login
  • US Flag 
11:17AM EDT


 

Airport Tracker/Info


-or-


 

Live Flight TrackerFlight Track Log ✈ JZA8145 ✈ 19-May-2013 ✈ CYEG - CYYC

Flight Track Log - Related Links

Times and Time Zones

All times are in EDT time to prevent confusion due to time zone crossing. See the JZA8145 flight status page for this flight to view local times or setup timezone preferences in your user account.

Time Position Orientation Groundspeed Altitude Reporting Facility
EDT Latitude Longitude Course Direction KTS MPH feet Rate Location/Type
03:02PM 53.3000 -113.6167 166° South 20 23 2,400  Level Edmonton Center
03:03PM 53.3167 -113.5833 50° Northeast 140 161 3,800 1,320 Climbing Edmonton Center
03:04PM 53.3167 -113.5000 90° East 160 184 5,100 1,140 Climbing Edmonton Center
03:05PM 53.2667 -113.5000 180° South 190 219 6,100 1,020 Climbing Edmonton Center
03:06PM 53.2167 -113.4833 169° South 200 230 7,200 1,080 Climbing Edmonton Center
03:07PM 53.0512 -113.8115 169° South  Level FlightAware Approximate
03:07PM 53.1667 -113.5000 191° South 200 230 8,300  Level Edmonton Center
03:08PM 52.9824 -113.7886 169° South  Level FlightAware Approximate
03:08PM 53.1000 -113.5167 189° South 200 230 9,700  Level Edmonton Center
03:09PM 52.9137 -113.7655 166° South  Level FlightAware Approximate
03:09PM 53.0500 -113.5000 169° South 200 230 10,900  Level Edmonton Center
03:10PM 52.9833 -113.5167 189° South 200 230 12,100 1,140 Climbing Edmonton Center
03:11PM 52.9333 -113.5000 169° South 200 230 13,200 1,080 Climbing Edmonton Center
03:12PM 52.8833 -113.5167 191° South 210 242 14,300 900 Climbing Edmonton Center
03:13PM 52.8000 -113.5333 187° South 210 242 15,000 300 Climbing Edmonton Center
03:14PM 52.7500 -113.5333 180° South 250 288 15,000  Level Edmonton Center
03:15PM 52.6667 -113.5333 180° South 260 299 15,000  Level Edmonton Center
03:16PM 52.6000 -113.5500 189° South 260 299 15,000  Level Edmonton Center
03:17PM 52.5167 -113.5667 187° South 260 299 15,000  Level Edmonton Center
03:18PM 52.4500 -113.5500 171° South 260 299 15,000  Level Edmonton Center
03:19PM 52.3833 -113.5667 189° South 260 299 15,000  Level Edmonton Center
03:20PM 52.3167 -113.5833 189° South 260 299 15,000  Level Edmonton Center
03:21PM 52.2333 -113.5833 180° South 260 299 15,000  Level Edmonton Center
03:22PM 52.1667 -113.5667 171° South 260 299 15,000  Level Edmonton Center
03:23PM 52.0667 -113.5833 186° South 260 299 15,000  Level Edmonton Center
03:24PM 52.0000 -113.6000 189° South 270 311 15,000  Level Edmonton Center
03:25PM 51.9333 -113.6167 189° South 260 299 15,000 -60 Level Edmonton Center
03:26PM 51.8667 -113.6167 180° South 260 299 14,900 -660 Descending Edmonton Center
03:27PM 51.7833 -113.6333 187° South 270 311 13,700 -1,260 Descending Edmonton Center
03:28PM 51.7167 -113.6500 189° South 270 311 12,400 -1,260 Descending Edmonton Center
03:29PM 51.6333 -113.6833 194° South 270 311 11,200 -1,200 Descending Edmonton Center
03:30PM 51.5667 -113.7333 205° Southwest 270 311 10,100 -1,020 Descending Edmonton Center
03:31PM 51.5000 -113.7333 180° South 270 311 9,200 -960 Descending Edmonton Center
03:32PM 51.4333 -113.7833 205° Southwest 270 311 8,200 -600 Descending Edmonton Center
03:33PM 51.3500 -113.7833 180° South 260 299 8,000 -120 Descending Edmonton Center
03:34PM 51.2667 -113.8333 201° Southwest 260 299 8,000  Level Edmonton Center
03:35PM 51.2000 -113.8667 197° South 260 299 8,000  Level Edmonton Center
03:36PM 51.1333 -113.8500 171° South 250 288 8,000  Level Edmonton Center
03:37PM 51.0833 -113.7833 140° Southeast 250 288 8,000  Level Edmonton Center
03:38PM 51.0667 -113.6833 105° East 230 265 8,000 -720 Level Edmonton Center
03:39PM 51.0000 -113.6833 180° South 230 265 6,600 -1,020 Descending Edmonton Center
03:40PM 51.0000 -113.7667 270° West 190 219 6,000 -300 Descending Edmonton Center
03:41PM 51.0167 -113.8333 292° West 160 184 6,000 -300 Level Edmonton Center
03:42PM 51.0500 -113.8833 317° Northwest 160 184 5,400 -780 Descending Edmonton Center
03:43PM 51.0500 -113.9667 270° West 140 161 4,500 -900 Descending Edmonton Center